TimeCDT,TemperatureF,Dew PointF,Humidity,Sea Level PressureIn,VisibilityMPH,Wind Direction,Wind SpeedMPH,Gust SpeedMPH,PrecipitationIn,Events,Conditions,WindDirDegrees,DateUTC
12:53 AM,71.6,59.0,64,29.89,10.0,NNW,12.7,-,N/A,,Clear,330,2011-10-13 05:53:00
1:53 AM,69.1,55.0,61,29.87,10.0,NNW,10.4,-,N/A,,Clear,330,2011-10-13 06:53:00
2:53 AM,68.0,53.1,59,29.88,10.0,NW,11.5,-,N/A,,Clear,320,2011-10-13 07:53:00
3:53 AM,66.0,52.0,60,29.89,10.0,NW,12.7,-,N/A,,Clear,320,2011-10-13 08:53:00
4:53 AM,64.0,51.1,63,29.90,10.0,NW,12.7,-,N/A,,Clear,320,2011-10-13 09:53:00
5:53 AM,64.0,48.0,56,29.91,10.0,NNW,11.5,-,N/A,,Clear,330,2011-10-13 10:53:00
6:53 AM,60.1,46.9,62,29.92,10.0,North,10.4,-,N/A,,Clear,350,2011-10-13 11:53:00
7:53 AM,61.0,46.0,58,29.93,10.0,NNW,9.2,-,N/A,,Clear,330,2011-10-13 12:53:00
8:53 AM,64.0,46.0,52,29.94,10.0,NNW,13.8,-,N/A,,Clear,340,2011-10-13 13:53:00
9:53 AM,68.0,44.6,43,29.99,10.0,NNW,12.7,-,N/A,,Clear,340,2011-10-13 14:53:00
10:53 AM,72.0,44.1,37,29.98,10.0,NNW,13.8,-,N/A,,Clear,340,2011-10-13 15:53:00
11:53 AM,75.0,43.0,32,29.98,10.0,North,13.8,-,N/A,,Clear,350,2011-10-13 16:53:00
12:53 PM,77.0,41.0,28,29.97,10.0,North,15.0,21.9,N/A,,Clear,360,2011-10-13 17:53:00
1:53 PM,78.1,39.9,25,29.94,10.0,North,12.7,18.4,N/A,,Clear,350,2011-10-13 18:53:00
2:53 PM,78.1,41.0,27,29.91,10.0,NNW,9.2,18.4,N/A,,Partly Cloudy,340,2011-10-13 19:53:00
3:53 PM,79.0,41.0,26,29.90,10.0,NNW,11.5,19.6,N/A,,Partly Cloudy,340,2011-10-13 20:53:00
4:53 PM,79.0,42.1,27,29.89,10.0,NNW,8.1,-,N/A,,Partly Cloudy,330,2011-10-13 21:53:00
5:53 PM,79.0,42.1,27,29.88,10.0,North,8.1,-,N/A,,Partly Cloudy,350,2011-10-13 22:53:00
6:53 PM,73.4,42.8,33,29.89,10.0,NNW,8.1,-,N/A,,Partly Cloudy,330,2011-10-13 23:53:00
7:53 PM,73.9,42.1,32,29.88,10.0,NW,6.9,-,N/A,,Partly Cloudy,310,2011-10-14 00:53:00
8:53 PM,73.0,44.1,35,29.90,10.0,NW,8.1,-,N/A,,Partly Cloudy,310,2011-10-14 01:53:00
9:53 PM,71.1,44.1,38,29.91,10.0,WNW,8.1,-,N/A,,Partly Cloudy,300,2011-10-14 02:53:00
10:53 PM,66.2,44.6,46,29.94,10.0,NW,6.9,-,N/A,,Clear,320,2011-10-14 03:53:00
11:53 PM,63.0,48.0,58,29.93,10.0,NNW,4.6,-,N/A,,Clear,340,2011-10-14 04:53:00